Location: Garden of he Gods Recreation Area
(37.6010°N, 88.3780°W)
Time: 20:52:06
(UTC-05:00)

N. Korean satellite - Visible Passes

Search period start: 15 October 2019 00:00
Search period end: 25 October 2019 00:00
Orbit: 455 x 508 km, 97.2° (Epoch: 14 October)

Date Brightness Start Highest point End Pass type
(mag) Time Alt. Az. Time Alt. Az. Time Alt. Az.
15 Oct 9.7 18:48:57 10° SW 18:51:34 20° W 18:54:11 10° NW visible
16 Oct 8.8 06:16:15 10° NE 06:19:28 30° E 06:22:42 10° SSE visible
17 Oct 10.1 05:51:58 10° ENE 05:54:04 15° E 05:56:10 10° SE visible
18 Oct 10.3 19:07:48 10° WSW 19:09:10 12° W 19:10:32 10° WNW visible
19 Oct 7.5 06:33:27 10° NNE 06:37:00 54° E 06:40:36 10° S visible
19 Oct 9.2 18:40:49 10° SSW 18:43:42 25° W 18:46:38 10° NW visible
20 Oct 9.3 06:08:37 10° NE 06:11:39 25° E 06:14:42 10° SSE visible
21 Oct 10.3 05:44:46 10° ENE 05:46:13 12° E 05:47:39 10° ESE visible
22 Oct 10.0 18:59:12 10° SW 19:01:16 15° W 19:03:21 10° NW visible
23 Oct 8.1 06:25:41 10° NNE 06:29:11 42° E 06:32:41 10° S visible
23 Oct 8.6 18:32:43 10° SSW 18:35:49 32° W 18:38:58 10° NNW visible
24 Oct 9.7 06:01:01 10° NE 06:03:47 20° E 06:06:34 10° SE visible
